Location: *
(43.9900°N, 3.4811°E)
Time: 16:40:50
(UTC+00:00)

Cosmos 2082 Rocket - Pass Details

Date: 25 August 2019
Orbit: 832 x 855 km, 71.0° (Epoch: 23 October)

Event Time Altitude Azimuth Distance (km) Brightness Sun altitude
Rises 21:08:05 0° 215° (SW) 3,370 5.2 -24.4°
Reaches altitude 10° 21:10:32 10° 219° (SW) 2,443 4.5 -24.7°
Maximum altitude 21:16:04 59° 299° (WNW) 972 2.7 -25.4°
Drops below altitude 10° 21:21:40 10° 19° (NNE) 2,474 5.0 -26.1°
Sets 21:24:11 0° 23° (NNE) 3,416 5.7 -26.4°
